Regional Weather Roundup
Issued by NWS

Home | Current Version | Previous Version | Text Only | Print | Product List | Glossary On
Versions: 1 2 3 4 5 6 7 8 9 10 11 12 13 14 15 16 17 18 19 20 21 22 23 24 25 26 27 28 29 30 31 32 33 34 35 36 37 38 39 40 41 42 43 44 45 46 47 48 49 50
000
ASUS43 KLMK 280210
RWRKY
KENTUCKY REGIONAL WEATHER ROUNDUP
NATIONAL WEATHER SERVICE LOUISVILLE KY
1000 PM EDT MON APR 27 2015

NOTE "FAIR" INDICATES FEW OR NO CLOUDS BELOW 12,000 FEET
WITH NO SIGNIFICANT WEATHER AND/OR OBSTRUCTIONS TO VISIBILITY.

KYZ001>023-026-027-061>063-070>075-280300-
WESTERN AND SOUTH CENTRAL KENTUCKY

CITY           SKY/WX    TMP DP  RH WIND       PRES   REMARKS
PADUCAH        PTCLDY    55  42  61 NE7       30.01R
HENDERSON      CLEAR     55  37  50 N8        30.02R
OWENSBORO      CLEAR     57  40  53 N10       30.02R
HOPKINSVILLE   CLEAR     54  42  64 N2        30.00R
BOWLING GREEN  CLEAR     57  36  45 CALM      29.99R
GLASGOW        CLEAR     54  35  48 CALM      29.98R
$$

KYZ024-025-028>034-038-045-046-053-280300-
NORTH CENTRAL KENTUCKY

CITY           SKY/WX    TMP DP  RH WIND       PRES   REMARKS
LOUISVILLE/SDF CLEAR     55  37  50 N12       30.02R
LOUISVILLE/LOU CLEAR     54  37  52 N5        30.03R
FORT KNOX      CLEAR     54  38  53 N10       30.00R
$$

KYZ035>037-039>044-047>052-055>060-089>105-280300-
NORTHEAST KENTUCKY

CITY           SKY/WX    TMP DP  RH WIND       PRES   REMARKS
LEXINGTON      CLEAR     51  39  63 N9        30.00R
COVINGTON      PTCLDY    52  37  56 N13       30.03R
FRANKFORT      CLEAR     54  37  52 N7        30.00R
$$

KYZ054-064>069-076>088-106>120-280300-
SOUTHEAST KENTUCKY

CITY           SKY/WX    TMP DP  RH WIND       PRES   REMARKS
JACKSON        CLOUDY    55  33  43 VRB5      29.97R
LONDON         MOCLDY    54  34  46 CALM      29.98R
SOMERSET       CLEAR     50  37  62 CALM      30.00R
MIDDLESBORO    CLEAR     50  38  62 CALM      29.99R
MONTICELLO     CLEAR     46  42  86 CALM      30.02R
$$



USA.gov is the U.S. government's official web portal to all federal, state and local government web resources and services.